STARLINK-37018, 68103

Orbit data source: Space-Track

STARLINK-37018, 68103 is a payload satellite owned by SpaceX/Seattle (US) in SSO that was launched on Sun, 08 Mar 2026 UTC via an FALCON 9 launch vehicle from the Air Force Western Test Range (AFWTR). Payload-class satellites include a variety of spacecraft equipped with specific instruments for various scientific and technological missions. These include communications satellites like Starlink; space stations such as the ISS; scientific satellites like the Hubble; Earth observation satellites from companies like Planet Labs, Umbra, and HawkEye 360; GPS; miniature CubeSats for education and research; and military/defense satellites.

Loading next visibility...
Identifier
68103, 2026-044C
Orbit
SSO
Country
Flag of USUS
Related business
Manufacturer
SpaceX/Seattle
Mission
Operational Commercial Communications
Bus & Motor
STARLINK V2MO, Unknown motor
Mass
575 kg wet, ~530 kg dry
Launch date (UTC)
2026-03-08 (6 months ago)
Launch vehicle
FALCON 9
Launch site
Air Force Western Test Range (AFWTR)
Object type
Payload
Rocket body
Debris
Shape & HBR
Box + 1 Pan, 17.7 m
Radar Cross Section
41.120 m², Large (>1 m²)

Expand to show TLE details & history
Last TLE update: 13 hours ago

TLE from 13 hours ago
0 STARLINK-37018
1 68103U 26044C   26246.86167162  .00020766  00000-0  64359-3 0  9992
2 68103  97.2852 205.9807 0002494  99.0326 261.1199 15.33453385 28887
Epoch: 2026-09-03T20:40Z
TLE epoch observation values (Epoch: 2026-09-03T20:40:48.427Z)
Latitude
-0.00006°
Longitude
-87.21484°
Altitude
468.894 km
Speed
7.632 km/s
True Right ascension
13h 43m 55s
True Declination
0° 00' 00"
Sunlit
Object was in daylight at epoch
Visualization orbit readout
Latitude
Unknown
Longitude
Unknown
Altitude
Unknown
Speed
Unknown
Apparent Right ascension
Unknown
Apparent Declination
Unknown
Sunlit
N/A
Visualization observer readout
Local Sidereal Time
01:42:57
Azimuth
Unknown
Elevation
Unknown
Doppler factor
Unknown
Orbital elements
Apogee altitude
464.167 km
Perigee altitude
460.755 km
Semi-major axis
6,840.598 km
Eccentricity
0.00025
Inclination
97.2852°
RAAN
205.9807°
Arg. of periapsis
99.0326°
True anomaly
261.09166°
Mean anomaly
261.1199°
Eccentric anomaly
261.10578°
Mean motion
3.83621 °/min
Orbital period
93.84 mins
BSTAR
0.00064359
Loading maneuver chart data...
Computing Atmospheric mass density...
Loading historical data...
Loading historical data...
Loading historical data...
Loading historical data...
Loading historical data...
Loading historical data...
Loading historical data...

Documentation

Showing up to 5 results
|